Theta_e
317 318 320 321 320 321 320 323 323 324 318 318 319 319 319 326 325 326 332 340 342 343 343 343 341 342 342 344 344 344 345 346 346 346 346 348 348 349 348 339 336 337 344 348
317 319 320 322 321 322 322 323 321 322 318 317 320 321 320 324 326 326 328 334 339 341 343 343 343 343 343 345 345 345 345 344 346 346 346 348 348 348 349 345 338 335 336 339
317 317 319 322 322 322 322 322 322 322 321 318 318 318 318 322 324 325 326 328 338 340 340 339 340 341 343 344 345 346 346 346 346 345 345 347 349 349 348 348 346 340 337 337
316 317 324 322 322 323 323 323 321 321 320 320 320 324 325 326 328 328 329 331 337 340 340 340 338 340 340 344 345 346 346 347 348 346 345 346 348 348 349 347 345 343 340 338
318 319 320 323 324 323 322 322 323 323 321 320 322 324 326 326 327 328 329 332 335 338 338 337 337 337 343 345 345 347 346 346 347 345 346 346 347 348 349 350 348 343 342 342
318 320 324 323 329 329 327 324 323 323 323 322 322 322 323 330 329 332 335 334 335 336 336 338 340 342 345 346 346 347 346 346 346 346 347 346 346 347 348 349 348 348 346 343
319 322 322 327 332 333 329 326 335 328 325 325 324 325 328 334 335 333 331 331 332 333 334 336 340 344 344 346 346 346 346 346 348 348 348 347 347 349 348 348 350 351 349 347
319 324 324 330 332 338 334 336 336 334 333 332 335 337 337 336 336 335 333 333 334 337 333 332 337 344 345 346 342 344 347 347 347 348 348 350 350 352 351 352 353 353 351 351
323 325 326 328 330 328 330 335 340 337 339 344 346 343 342 342 338 336 334 333 334 335 338 336 335 345 344 345 343 344 346 347 346 347 349 352 352 351 353 355 355 358 355 353
327 329 329 331 329 330 331 334 339 344 347 348 350 350 349 347 346 346 346 343 341 339 341 344 343 340 334 340 345 345 346 345 345 346 348 352 354 355 355 356 356 356 354 350
327 328 328 329 326 328 329 333 339 342 345 346 349 349 351 352 353 353 354 353 352 351 351 351 351 351 351 348 340 343 346 346 347 348 350 353 353 354 355 356 356 353 351 350
327 326 326 326 324 326 328 329 333 336 338 340 344 346 349 350 349 349 349 348 348 347 347 347 342 338 335 342 355 351 350 348 348 349 350 352 353 356 356 356 356 353 350 348
325 326 326 325 324 326 328 327 328 330 331 333 335 340 342 342 343 340 338 337 337 336 335 335 335 335 333 334 333 347 357 355 354 353 352 354 355 354 350 345 337 337 334 333
325 326 325 326 325 325 328 328 330 330 331 332 334 336 339 340 340 339 339 339 339 338 337 340 340 339 341 335 334 335 336 336 339 349 354 356 353 348 339 336 335 332 331 331
326 325 325 324 325 326 328 329 329 328 328 331 332 333 334 337 339 340 340 341 338 340 340 338 338 338 337 335 339 337 340 337 337 337 342 342 339 334 335 334 333 332 338 341
325 325 324 325 326 326 328 328 328 329 329 328 327 330 331 332 336 339 340 340 340 341 341 341 341 340 341 342 342 336 331 333 336 333 337 336 332 331 331 331 337 342 341 338
322 320 321 321 322 323 322 324 326 327 329 329 330 327 323 323 325 331 337 338 338 339 338 339 339 339 341 341 340 339 339 340 340 338 336 336 340 343 341 342 341 339 339 338
319 320 321 321 323 323 322 322 321 322 326 326 327 327 327 326 328 327 325 328 333 334 334 335 337 338 337 337 339 340 337 336 336 334 335 338 338 337 335 335 335 335 335 334
322 322 323 322 321 321 324 325 324 324 323 323 322 323 325 326 327 328 327 326 325 323 320 321 323 330 332 332 335 336 338 337 337 335 333 332 330 329 327 326 326 326 326 325
320 321 323 323 322 323 324 325 325 325 325 325 325 322 322 322 321 323 325 328 327 328 327 323 323 323 324 326 329 334 335 336 335 335 334 333 334 334 333 330 328 328 328 327
320 322 322 323 323 323 322 322 323 323 324 324 325 325 325 325 325 324 324 323 319 318 325 327 326 326 324 323 322 324 328 329 330 332 331 332 332 332 332 331 331 330 330 330
314 316 318 321 321 320 320 322 323 321 323 323 322 321 323 322 320 321 320 318 317 316 319 318 322 326 325 326 327 325 326 326 326 327 327 326 328 329 329 329 329 329 329 329
312 312 314 316 315 315 316 316 317 317 318 319 321 321 319 318 318 318 319 320 320 318 318 319 317 319 321 324 327 327 328 328 327 327 327 327 327 327 326 326 325 325 326 326
310 309 309 310 311 311 311 312 313 315 315 315 316 317 319 319 317 317 317 318 319 318 318 317 318 318 319 322 325 322 326 326 326 325 326 326 325 326 324 324 324 324 325 325
308 308 308 308 308 309 310 310 311 312 313 314 313 313 314 315 316 316 317 317 316 317 317 316 317 317 318 318 318 318 318 318 319 321 321 317 316 316 316 316 317 318 321 324
306 306 307 307 307 308 309 309 311 311 311 311 311 310 310 311 312 313 314 315 315 315 314 314 314 315 316 317 317 317 318 319 317 317 316 315 314 315 315 315 315 314 314 315
305 305 306 307 307 307 306 307 307 308 308 308 307 306 306 307 308 308 309 310 311 310 309 309 309 309 310 311 312 314 315 315 316 316 317 317 316 314 314 314 314 314 313 313
Wind_Speed
6 12 15 14 12 26 20 23 17 16 12 12 10 11 12 22 20 18 20 35 42 47 50 49 50 52 54 54 54 55 56 56 57 52 48 48 47 46 41 41 43 43 43 42
5 9 13 17 17 23 28 25 14 15 8 9 17 22 8 24 30 27 25 23 44 49 52 49 52 55 54 53 53 53 53 56 56 52 50 51 49 49 46 44 43 43 45 46
5 9 12 9 29 20 15 15 18 17 10 9 9 10 14 29 34 33 32 31 36 47 41 43 45 44 53 53 54 53 53 54 55 53 52 52 52 50 50 48 45 45 47 47
5 6 8 12 11 16 20 17 9 5 10 10 12 30 36 34 26 21 19 21 35 43 40 40 36 44 45 53 54 54 52 53 55 53 52 53 53 53 52 50 49 47 46 47
3 4 9 14 8 7 11 10 7 15 11 8 17 11 9 25 28 26 25 22 30 42 36 35 41 43 48 50 54 55 52 54 56 53 53 54 54 54 54 53 51 49 48 42
3 4 7 1 15 26 17 19 14 13 12 10 11 6 10 19 20 17 20 20 18 20 22 28 37 45 46 49 51 55 54 52 52 54 55 55 53 53 54 54 52 49 47 39
9 5 8 6 23 15 5 11 6 18 15 11 7 13 22 21 17 15 15 14 16 20 22 18 28 42 45 47 51 52 53 51 54 55 55 55 55 53 53 52 50 46 41 33
10 9 10 14 11 8 10 32 18 18 20 20 20 19 18 14 11 11 11 10 8 8 13 20 25 35 42 46 40 47 55 53 52 53 53 55 55 55 51 49 46 42 37 33
10 8 3 5 4 25 27 21 19 27 27 33 28 22 18 14 11 7 4 2 4 6 4 9 22 26 39 40 40 46 52 53 52 53 53 53 53 53 53 48 42 38 38 35
3 5 5 14 22 24 22 14 10 15 29 24 29 22 19 15 12 8 5 2 3 9 12 13 13 10 23 32 38 43 50 54 53 54 55 51 48 46 48 47 43 42 38 35
3 3 3 15 23 17 14 16 19 19 23 24 27 23 21 17 14 12 10 6 4 4 10 15 18 20 19 19 31 36 42 48 51 53 47 43 46 46 45 44 43 42 40 37
6 7 9 7 16 9 16 25 28 29 28 25 23 21 17 17 14 12 10 9 7 8 8 11 15 18 22 21 19 23 23 36 38 39 42 44 42 40 38 34 38 34 21 17
4 17 19 14 11 10 19 26 28 31 27 25 23 20 17 16 14 14 13 12 12 12 11 14 19 23 26 21 17 9 11 10 31 39 42 40 36 31 29 31 20 9 10 8
30 32 19 6 7 6 30 32 35 35 31 29 24 20 18 18 14 17 20 20 18 13 12 15 17 19 21 13 15 17 27 32 19 20 39 42 40 35 30 10 4 13 13 15
21 25 27 16 15 22 30 30 33 33 31 32 29 27 21 21 24 20 21 20 18 19 20 17 12 11 14 13 12 17 19 30 33 21 19 40 26 16 23 24 29 37 39 31
29 26 17 18 19 21 27 30 32 30 28 27 26 25 22 22 24 26 24 22 22 24 20 19 22 18 21 10 5 3 16 12 30 24 36 13 14 25 31 34 34 35 33 35
37 16 19 20 19 18 22 24 24 24 24 25 24 21 20 19 21 22 26 23 20 17 14 18 19 18 17 17 15 13 15 16 16 24 23 23 27 29 29 32 32 33 34 33
29 22 18 18 17 17 18 18 16 17 24 21 21 21 23 21 20 20 20 19 19 20 22 21 16 17 16 17 15 16 17 19 22 23 22 20 21 22 25 27 29 30 29 28
21 18 16 19 17 14 14 17 19 14 11 10 14 22 21 21 20 19 18 18 17 15 14 12 12 17 18 17 14 16 13 15 17 18 20 22 23 23 24 26 25 25 25 26
24 20 18 17 13 15 17 17 16 15 18 19 15 13 13 13 14 16 19 25 23 20 14 12 12 10 7 8 14 12 9 8 6 9 12 13 13 14 18 21 22 24 24 22
29 28 28 26 26 25 22 23 20 23 21 21 22 21 19 19 21 21 22 22 22 19 16 14 12 11 7 4 1 0 4 9 6 4 3 5 10 14 14 15 15 14 16 18
37 38 32 30 30 29 29 28 27 24 22 22 22 19 19 21 20 19 20 22 20 17 17 17 15 11 11 8 4 2 1 2 5 4 4 4 6 11 11 9 8 8 11 17
39 39 39 33 34 34 30 30 29 27 24 21 20 18 17 18 17 19 17 16 17 17 20 23 20 14 15 11 7 7 7 6 6 5 8 6 3 4 4 2 4 5 13 16
31 32 32 31 29 29 29 28 28 28 26 28 23 18 17 16 15 13 12 15 15 16 19 21 21 19 15 14 10 10 7 8 6 6 7 6 4 6 8 8 11 12 14 15
26 25 24 24 26 26 23 21 20 18 17 19 22 22 20 19 20 20 18 18 18 18 19 20 20 19 19 20 15 8 7 7 5 10 11 10 10 8 6 5 2 1 3 6
23 25 26 27 26 23 21 21 21 18 17 17 16 17 19 16 15 17 18 16 14 14 16 17 17 16 14 14 14 15 12 8 11 9 4 5 7 10 8 5 5 6 7 7
21 19 21 22 23 21 20 20 19 19 17 17 18 18 16 15 15 17 17 16 16 15 16 16 16 16 15 15 14 12 12 13 13 13 4 2 3 2 2 7 10 13 14 15
Wind_Direction
299 296 288 267 259 224 216 222 218 230 202 233 223 201 214 226 244 242 233 222 218 215 218 224 226 227 230 232 230 229 229 231 230 228 230 232 230 230 231 229 229 231 234 237
288 258 257 262 256 250 228 219 230 239 219 212 229 238 245 239 249 256 257 238 220 211 217 223 229 232 228 229 231 228 230 233 232 229 228 230 230 231 230 230 230 232 235 238
282 313 318 271 236 247 255 222 202 219 208 191 241 221 228 240 244 247 257 254 217 210 209 218 223 229 230 231 233 230 232 233 232 232 230 230 231 232 233 233 232 233 234 237
268 306 235 264 197 233 236 243 218 160 202 197 203 231 236 234 234 229 246 241 215 209 211 221 234 231 238 228 228 230 231 232 231 232 233 232 231 233 233 234 234 236 237 237
229 240 291 296 318 239 187 231 210 203 215 215 211 202 255 238 239 247 254 254 231 219 226 236 239 241 230 225 227 229 230 233 233 233 233 232 232 232 234 236 235 236 239 240
205 243 237 89 336 334 316 225 200 186 197 179 146 188 234 233 235 219 211 205 210 212 219 230 236 231 227 227 227 230 233 235 235 236 233 234 234 234 234 236 237 238 240 239
233 262 284 343 337 314 161 242 166 191 191 154 181 211 227 186 185 189 204 222 225 222 221 229 234 229 228 229 230 236 236 237 236 236 237 236 236 235 235 236 235 235 238 238
211 219 259 12 351 353 308 303 265 161 165 159 160 150 154 160 169 173 173 181 186 196 229 234 233 232 234 231 233 239 237 236 239 239 239 237 236 237 235 236 232 227 227 226
189 222 257 355 321 305 307 296 309 135 143 143 138 138 141 137 135 132 143 215 266 282 264 231 233 242 236 239 247 246 239 239 240 241 240 237 235 234 234 230 227 218 219 219
152 208 263 29 346 341 338 14 38 114 136 138 129 127 124 125 122 116 97 73 317 302 306 318 309 277 245 247 254 249 242 241 239 237 237 234 232 233 233 230 220 217 216 219
195 221 291 37 358 349 11 69 76 84 100 112 122 117 119 112 104 96 91 80 38 326 303 306 312 313 306 277 250 249 255 251 243 236 226 214 223 224 225 227 222 222 224 219
213 188 114 67 323 16 65 71 78 82 79 77 83 88 96 98 83 72 59 49 38 26 353 329 317 321 328 326 311 260 244 246 231 222 213 212 215 203 206 211 215 216 222 242
182 161 117 87 46 71 90 87 87 83 78 75 71 78 74 72 74 66 55 41 27 13 347 323 313 308 312 318 277 283 232 238 221 215 203 196 184 177 143 132 133 143 189 177
141 124 100 129 231 105 97 95 90 86 83 78 73 70 67 66 69 66 57 53 47 31 3 347 329 315 308 313 332 288 275 267 241 202 201 184 167 157 141 99 343 317 218 163
122 118 126 145 133 103 98 95 89 83 84 80 77 72 68 68 68 72 72 69 65 52 40 22 18 15 341 360 351 17 16 312 211 217 208 162 163 218 240 250 223 208 196 179
124 110 125 107 92 83 89 89 83 82 85 86 84 78 69 63 64 66 70 70 70 67 52 38 36 36 31 18 327 221 136 192 162 177 209 181 150 175 172 179 189 182 171 172
101 96 104 95 90 83 79 81 79 75 80 81 86 89 73 67 66 64 66 66 70 76 66 54 48 46 53 63 80 103 126 148 153 159 143 155 161 170 171 170 174 175 177 177
98 102 94 88 85 74 66 70 72 74 76 77 75 78 80 75 65 59 65 73 73 70 63 54 47 46 54 62 71 86 95 104 113 118 122 132 141 150 154 161 165 165 168 174
84 84 74 74 74 70 63 73 74 71 72 80 78 74 74 72 67 64 68 70 60 53 35 23 32 48 52 53 62 66 98 110 111 114 121 134 142 149 158 164 164 161 167 176
82 79 86 97 106 93 86 86 83 75 68 62 77 78 83 73 65 61 60 61 56 54 43 23 21 23 30 57 63 70 69 86 132 140 142 148 157 172 182 189 186 184 185 183
70 71 83 87 77 75 70 78 80 71 74 71 74 70 73 72 68 64 63 62 56 52 51 53 48 42 35 17 316 76 77 92 81 117 113 166 188 192 192 203 205 209 207 202
77 74 65 75 69 60 54 74 85 76 79 75 68 70 62 60 56 57 55 51 48 42 37 35 33 16 15 24 49 63 38 258 257 248 206 200 173 175 171 173 173 178 212 208
67 69 76 81 81 81 78 75 79 78 75 74 73 67 66 61 56 55 56 44 38 42 45 42 33 34 13 33 83 64 55 70 107 143 133 134 177 139 142 137 168 177 212 206
57 62 61 64 68 67 67 69 71 76 79 72 70 73 77 82 66 57 58 59 57 45 48 39 33 33 42 54 70 56 111 127 123 102 93 116 152 179 190 206 215 230 238 232
63 64 60 57 55 55 53 54 61 67 71 75 72 71 74 77 78 71 66 60 51 47 47 43 39 37 39 47 64 71 63 73 112 146 153 163 154 150 136 121 132 216 247 249
67 62 61 64 61 58 56 56 68 69 69 72 69 68 71 69 65 69 71 66 54 46 54 52 49 48 51 50 46 41 36 12 30 55 91 144 170 172 177 197 225 214 217 223
71 65 65 68 69 64 61 61 64 67 64 66 69 66 65 64 64 63 67 72 69 64 59 55 51 47 39 39 42 45 49 46 45 31 65 286 310 9 184 195 194 208 206 205